Location: Decatur Area Astronomy Club
(40.0275°N, 88.7810°W)
Time: 14:40:23
(UTC-05:00)

Daily predictions for brighter satellites

Satellite Brightness Start Highest point End
(mag) Time Altitude Azimuth Time Altitude Azimuth Time Altitude Azimuth
Cosmos 494 Rocket 4.0 20:00:56 10° NNW 20:06:07 66° ENE 20:11:19 10° SSE
YAOGAN 6 3.6 20:03:20 10° SE 20:06:26 28° ENE 20:09:34 10° NNE
H-2A R/B 4.5 20:04:01 10° SSW 20:07:26 35° W 20:10:55 10° NNW
Sich 1 3.7 20:08:58 10° N 20:12:55 35° ENE 20:16:50 10° SE
In-Cosmos 22 Rocket 4.2 20:07:57 10° N 20:13:24 62° ENE 20:18:42 10° SSE
Nadezhda 3 Rocket 4.4 20:08:12 10° N 20:14:11 43° ENE 20:20:10 10° SSE
Cosmos 1340 3.0 20:10:57 10° SSE 20:14:32 42° E 20:18:08 10° NNE
NOSS 7 (H) 4.4 20:11:38 10° SSW 20:15:17 86° SE 20:18:35 10° NE
Cosmos 2251 Rocket 3.9 20:12:07 10° N 20:17:19 47° ENE 20:22:28 10° SE
Cosmos 2237 4.3 20:12:42 10° SSW 20:18:23 86° WNW 20:24:07 10° NNE
Cosmos 1939 Rocket 3.3 20:17:09 10° SE 20:20:46 41° ENE 20:24:28 10° N
Cosmos 2322 4.0 20:15:58 10° SSW 20:21:36 76° WNW 20:27:19 10° NNE
SJ-6B 3.0 20:17:34 10° S 20:21:38 81° WSW 20:25:39 10° NNW
Envisat 3.1 20:20:01 10° SSE 20:25:05 85° WSW 20:30:13 10° NNW
Cosmos 44 4.3 20:22:55 10° SW 20:27:14 48° NW 20:31:49 10° NNE
Cosmos 1825 4.3 20:26:11 10° NE 20:27:29 11° ENE 20:28:24 11° E
Meteor 2-3 Rocket 4.3 20:24:25 10° N 20:29:37 38° ENE 20:34:38 11° SE
Cosmos 1633 Rocket 3.4 20:27:36 10° N 20:31:46 43° ENE 20:35:51 10° SSE
Cosmos 2228 Rocket 4.2 20:32:02 12° SE 20:35:13 24° E 20:38:46 10° NE
Meteor 2-15 Rocket 4.5 20:30:08 10° N 20:36:14 63° E 20:42:18 10° SSE
Cosmos 1437 4.3 20:34:17 10° SSW 20:37:17 38° WNW 20:40:18 10° N
SL-24 R/B - RUBIN 2 3.5 20:34:51 10° NNW 20:39:12 69° NE 20:42:34 16° SE
Cosmos 1515 Rocket 4.5 20:37:19 12° SE 20:40:40 28° E 20:44:30 10° NNE
Thor Agena Rocket 3.8 20:40:14 10° N 20:45:29 78° WNW 20:50:45 10° SSW
Cosmos 44 Rocket 4.3 20:41:23 10° SW 20:45:58 50° NW 20:50:45 10° NNE
ARGOS 4.3 20:44:33 17° ESE 20:47:17 26° ENE 20:51:37 10° NNE
Cosmos 2154 Rocket 4.0 20:42:22 10° S 20:48:40 90° E 20:54:56 10° N
BREEZE-M DEB (TANK) 4.1 20:46:08 10° NW 20:49:27 22° N 20:51:02 13° NE
Meteor 2-2 Rocket 4.3 20:49:13 10° S 20:55:02 88° WNW 21:01:01 10° N
Resurs 01 Rocket 1.7 20:52:46 10° S 20:57:12 82° WSW 21:01:41 10° NNW
Cosmos 1980 4.0 20:52:33 10° S 20:57:51 43° ESE 21:03:13 10° NE
Meteor 1-27 4.2 20:52:21 10° S 20:58:04 71° E 21:03:44 10° NNE
Cosmos 2360 Rocket 4.3 20:53:23 10° WSW 20:58:14 29° WNW 21:03:07 10° N
Cosmos 1328 Rocket 3.5 20:57:24 10° S 21:01:47 73° E 21:06:13 10° NNE
Cosmos 2333 Rocket 2.1 20:58:23 10° SSW 21:04:02 79° ESE 21:09:43 10° NNE
Spot 2 Rocket 3.5 21:03:43 14° SSE 21:08:11 87° WSW 21:13:19 10° NNW
Cosmos 2341 Rocket 4.0 21:02:32 10° S 21:08:55 87° E 21:15:18 10° N
COSMOS 2428 3.5 21:03:45 10° SW 21:09:22 56° WNW 21:15:01 10° NNE
Meteor 2-10 Rocket 4.4 21:11:14 28° ESE 21:12:53 33° E 21:17:59 10° NNE
Cosmos 1470 Rocket 3.5 21:08:33 10° N 21:12:55 64° E 21:14:51 32° SSE
Cosmos 1455 2.4 21:09:19 10° SSW 21:13:06 69° W 21:16:57 10° N
ATLAS 2AS CENTAUR R/B 3.0 21:06:01 10° NNW 21:13:57 72° NE 21:18:17 27° SE
Cosmos 2218 Rocket 4.1 21:11:56 16° SSE 21:16:54 55° E 21:23:07 10° NNE
CZ-4B DEB 4.4 21:16:41 49° SE 21:17:27 71° ENE 21:20:57 10° N
Cosmos 1844 Rocket 3.4 21:12:34 10° NNW 21:18:04 51° WSW 21:22:47 14° S
Cosmos 1844 4.0 21:12:48 10° NNW 21:18:27 67° WSW 21:22:30 20° S
Aureole 2 3.9 21:17:39 40° SSW 21:18:37 88° E 21:21:34 10° NNE
Cosmos 1892 3.9 21:15:46 10° NNW 21:19:28 42° W 21:22:50 12° SSW
ATLAS 2A CENTAUR R/B 4.5 21:07:57 10° SW 21:21:37 27° S 21:24:57 23° SSE
Terra 4.1 21:21:55 10° ENE 21:21:55 10° ENE 21:22:36 10° NE
Cosmos 1408 2.5 21:21:20 10° N 21:24:58 64° E 21:25:16 61° ESE
Cosmos 2237 Rocket 2.1 21:20:10 10° SSW 21:25:43 69° ESE 21:31:20 10° NNE
Cosmos 2219 Rocket 2.8 21:21:13 10° SW 21:26:47 58° WNW 21:32:22 10° NNE
ATLAS CENTAUR R/B 1.3 21:25:07 10° SW 21:28:44 68° WNW 21:32:32 10° NNE
SPOT 5 4.1 21:30:51 24° ENE 21:30:51 24° ENE 21:34:23 10° NNE
Cosmos 2366 rocket 3.9 21:27:19 23° SSE 21:31:12 64° E 21:37:25 10° NNE
MetOp-A 4.1 21:33:31 41° SE 21:35:21 69° ENE 21:40:41 10° N
Cosmos 2278 Rocket 2.1 21:29:49 10° NNW 21:35:31 73° ENE 21:37:23 43° SE
Genesis I 3.1 21:31:27 10° NNW 21:35:33 82° ENE 21:35:57 70° SE
NOSS 0 Rocket 3.9 21:29:28 10° SSW 21:35:38 83° WNW 21:41:53 10° NNE
H-2A R/B 2.1 21:39:08 49° ESE 21:40:04 57° ENE 21:44:58 10° N
SL-8 Rocket 4.1 21:35:10 10° S 21:41:29 80° W 21:47:48 10° N
Cosmos 1933 Rocket 3.6 21:37:20 10° NNW 21:41:44 73° W 21:42:57 46° SSW
OAO 2 Rocket 4.1 21:39:01 10° W 21:43:42 35° SSW 21:43:55 35° S
NOSS 3-4 (A) 4.5 21:37:26 10° NNW 21:44:02 42° NE 21:46:43 31° E
NOSS 3-4 (C) 4.5 21:37:33 10° NNW 21:44:08 41° NE 21:46:49 31° E
Cosmos 407 Rocket 4.0 21:42:57 10° N 21:47:48 41° ENE 21:48:01 41° ENE
Cosmos 1339 Rocket 4.3 21:44:06 10° N 21:50:12 74° E 21:52:00 48° SSE
ERS-1 Rocket 2.9 21:50:18 60° ESE 21:50:53 66° ENE 21:55:53 10° N
Cosmos 1371 Rocket 3.9 21:50:10 35° SSW 21:52:30 83° ESE 21:57:52 10° NNE
Cosmos 1151 Rocket 4.1 21:50:12 17° SW 21:53:11 43° WNW 21:57:16 10° N
USA 267 3.1 21:50:40 10° NE 21:57:10 64° SE 22:03:38 10° SW
Cosmos 1825 3.1 21:59:40 10° NNW 22:03:17 43° W 22:03:17 43° W
Cosmos 1869 Rocket 4.2 21:59:25 10° N 22:02:44 45° NNE 22:02:44 45° NNE
SL-19 R/B 4.5 22:09:46 53° ENE 22:09:51 53° ENE 22:15:15 10° N
Cosmos 1869 4.3 22:10:12 42° W 22:10:36 43° W 22:14:27 10° N
Cosmos 2344 3.7 22:10:53 48° ESE 22:10:53 48° ESE 22:18:22 10° NE
Cosmos 2098 Rocket 3.8 22:11:35 42° SW 22:12:42 53° W 22:16:43 10° N
Cosmos 2056 Rocket 3.6 22:13:06 57° SSW 22:14:14 81° WNW 22:19:41 10° NNE
SL-16 R/B 2.2 22:15:05 63° ENE 22:15:05 63° ENE 22:20:01 10° NNE
Helios 1B rocket 4.2 22:12:34 10° NNE 22:14:22 25° NNE 22:14:22 25° NNE
SL-8 R/B 4.0 22:14:57 10° WSW 22:19:41 65° NNW 22:19:41 65° NNW
Helios 1A 3.9 22:26:20 47° NNW 22:26:20 47° NNW 22:29:26 10° NNW
ARGOS 4.1 22:26:04 35° SW 22:27:17 40° W 22:32:20 10° NNW
GEOS 3 Rocket 4.3 22:24:49 10° NNE 22:30:03 55° NW 22:35:10 10° SW
USA 234 4.3 22:27:52 28° ENE 22:30:13 36° NNE 22:36:02 10° NW
Cosmos 1943 Rocket 4.3 22:29:20 10° NNE 22:32:00 13° NE 22:32:07 13° NE
Cosmos 1190 Rocket 4.3 22:31:56 10° NNW 22:36:40 63° WNW 22:36:40 63° WNW
CZ-2C R/B 4.5 22:39:38 25° NNE 22:39:38 25° NNE 22:42:09 10° N
Cosmos 2297 3.9 22:39:52 10° NNW 22:44:55 68° NW 22:44:55 68° NW
Cosmos 1140 Rocket 4.2 22:42:37 10° NNW 22:46:26 49° N 22:46:26 49° N
Cosmos 1000 Rocket 4.4 22:43:23 10° N 22:49:13 80° NNW 22:49:13 80° NNW
Cosmos 1821 Rocket 4.0 22:53:04 79° NNW 22:53:04 79° NNW 22:59:02 10° N
Cosmos 2369 Rocket 3.7 22:51:20 10° N 22:55:14 26° NE 22:55:14 26° NE
Terra 3.1 23:00:47 37° NNW 23:00:47 37° NNW 23:03:41 10° NNW
ATLAS 2AS CENTAUR R/B 4.3 22:58:18 10° WNW 23:04:08 24° WSW 23:05:45 22° SW
Cosmos 2123 Rocket 4.3 23:03:42 10° N 23:08:49 60° NNE 23:08:49 60° NNE
Lacrosse 5 3.8 23:09:51 10° NNW 23:13:24 22° NNE 23:13:24 22° NNE
Cosmos 2278 Rocket 4.4 23:15:55 10° WNW 23:18:52 14° W 23:19:15 14° WSW
CZ-2C R/B 4.2 23:14:18 10° NNE 23:16:47 28° NNE 23:16:47 28° NNE
H-2A R/B 4.3 23:19:45 16° W 23:19:48 16° W 23:22:49 10° NW
CZ-4C R/B 4.0 23:26:51 24° NE 23:26:51 24° NE 23:29:09 10° NE
ATLAS 5 CENTAUR R/B 3.6 23:26:40 10° NNW 23:31:12 34° NNE 23:31:12 34° NNE
USA 267 4.3 23:33:54 10° NE 23:39:57 42° NNW 23:46:00 10° W
BREEZE-M DEB (TANK) 4.2 23:25:04 10° WNW 23:44:24 75° W 23:44:24 75° W
